Location: Oberstdorf
(47.4188°N, 10.2969°E)
Time: 08:25:10
(UTC+01:00)

ISS - Pass Details

Date: 08 January 2018
Orbit: 402 x 406 km, 51.6° (Epoch: 16 January)

Event Time Altitude Azimuth Distance (km) Brightness Sun altitude
Exits shadow 06:40:28 25° 311° (NW) 858 -2.7 -13.7°
Maximum altitude 06:42:02 49° 14° (NNE) 535 -3.3 -13.5°
Drops below altitude 10° 06:45:14 10° 91° (E) 1,466 0.3 -13.0°
Sets 06:47:22 0° 97° (E) 2,325 1.8 -12.6°
